Home > Weather > Palikir > Past weeks

Flag for Micronesia Past Weather in Palikir, Pohnpei, Micronesia — Yesterday and Last 2 Weeks

Now
77 °F

Partly cloudy.


Feels Like: 79 °F
Forecast: 81 / 87 °F
Wind: 2 mph from North

Location: Pohnpei

Current Time: May 30, 2016 at 2:27:30 AM

Latest Report: May 30, 2016 at 1:50 AM


Visibility: 15 mi

Pressure: 29.89 "Hg

Humidity: 92%

Dew Point: 75 °F

Location of PalikirLocation

Past Weather in Palikir — Graph

°F

Palikir Temperature Yesterday

Maximum temperature yesterday: 88 °F (at 9:51 AM)
Minimum temperature yesterday: 79 °F (at 11:52 PM)
Average temperature yesterday: 84 °F

High & Low Weather Summary for the Past Weeks

 TemperatureHumidityPressure
High89 °F (May 20, 11:52 AM)98% (May 25, 12:58 PM)29.97 "Hg (May 25, 12:58 PM)
Low74 °F (May 15, 3:52 AM)64% (May 28, 12:51 PM)29.75 "Hg (May 15, 3:56 PM)
Average82 °F82%29.87 "Hg
* Reported May 15 12:50 AM — May 30 12:55 AM, Palikir, Weather by CustomWeather, © 2016

Note: Actual official high and low records may vary slightly from our data, if they occured in-between our weather recording intervals... More about our weather records

Advertising

Palikir Weather History for the Previous 24 Hours

Scroll right to see more
 ConditionsComfort  
Time TempWeatherWind HumidityBarometerVisibility
12:55 AM
Mon, May 30
78 °FPassing clouds.2 mph90%29.90 "Hg15 mi
11:52 PM
Sun, May 29
79 °FMostly cloudy.2 mph87%29.92 "Hg15 mi
10:51 PM80 °FMostly cloudy.2 mph86%29.93 "Hg15 mi
9:53 PM80 °FMostly cloudy.5 mph89%29.93 "Hg15 mi
8:52 PM82 °FMostly cloudy.5 mph86%29.93 "Hg15 mi
7:51 PM83 °FMostly cloudy.6 mph81%29.91 "Hg15 mi
6:52 PM85 °FMostly cloudy.3 mph75%29.89 "Hg15 mi
5:52 PM85 °FMore clouds than sun.9 mph79%29.87 "Hg15 mi
4:51 PM85 °FMore clouds than sun.7 mph74%29.85 "Hg15 mi
3:53 PM86 °FMore clouds than sun.9 mph73%29.85 "Hg15 mi
2:54 PM86 °FMore clouds than sun.7 mph77%29.85 "Hg15 mi
1:52 PM87 °FBroken clouds.9 mph69%29.86 "Hg15 mi
12:52 PM88 °FScattered clouds.9 mph69%29.88 "Hg15 mi
11:51 AM87 °FScattered clouds.6 mph69%29.89 "Hg15 mi
10:52 AM88 °FScattered clouds.9 mph70%29.91 "Hg15 mi
9:51 AM88 °FBroken clouds.6 mph70%29.93 "Hg15 mi
8:50 AM85 °FBroken clouds.7 mph75%29.92 "Hg15 mi
7:53 AM84 °FScattered clouds.5 mph77%29.92 "Hg15 mi
6:52 AM80 °FScattered clouds.3 mph83%29.91 "Hg15 mi
4:50 AM82 °FPassing clouds.6 mph75%29.88 "Hg15 mi
3:52 AM82 °FPartly cloudy.6 mph75%29.88 "Hg15 mi
2:54 AM81 °FPassing clouds.6 mph79%29.89 "Hg15 mi
Weather by CustomWeather, © 2016

See weather overviewHow to use our weather pages